Regional Weather Roundup
Issued by NWS

Home | Current Version | Previous Version | Graphics & Text | Print | Product List | Glossary On
Versions: 1 2 3 4 5 6 7 8 9 10 11 12 13 14 15 16 17 18 19 20 21 22 23 24 25 26 27 28 29 30 31 32 33 34 35 36 37 38 39 40 41 42 43 44 45 46 47 48 49 50
726
ASUS44 KLIX 200905
RWRLA
LOUISIANA WEATHER ROUNDUP
NATIONAL WEATHER SERVICE NEW ORLEANS LA
400 AM CDT SAT SEP 20 2014

NOTE: "FAIR" INDICATES FEW OR NO CLOUDS BELOW 12,000 FEET WITH NO
      SIGNIFICANT WEATHER AND/OR OBSTRUCTIONS TO VISIBILITY.
      SKY/WX - SKY CONDITION AND SIGNIFICANT WEATHER.
      TMP - AIR TEMPERATURE.    DP   - DEWPOINT TEMPERATURE.
      RH  - RELATIVE HUMIDITY.  PRES - PRESSURE.
      HX  - HEAT INDEX.         WCI  - WIND CHILL INDEX.

*  THESE STATIONS ARE NOT NWS OR FAA STATIONS AND ARE NOT UNDER
   NWS QUALITY CONTROL.

LAZ040-048-061>063-065-066-069-201000-
SOUTHEAST LOUISIANA

CITY           SKY/WX    TMP DP  RH WIND       PRES   REMARKS
N.O. AUDUBON     N/A     79  71  76 MISG        N/A
N.O. INTL ARPT PTCLDY    78  69  73 E6        29.92S
N.O. LAKEFRONT PTCLDY    79  73  82 NE16      29.93R
N.O. DOWNTOWN* FAIR      81  66  61 E5        29.92S
SLIDELL        CLEAR     71  68  90 NE5       29.93S
BATON ROUGE    CLEAR     70  67  90 NE6       29.94S
BOOTHVILLE     CLEAR     80  72  76 E10       29.90S
BELLE CHASSE   CLEAR     77  69  76 NE9       29.91S
BOGALUSA*      FAIR      69  65  90 CALM      29.97S
GALLIANO*      NOT AVBL
NEW ROADS*     FAIR      69  68  97 CALM      29.95R
GONZALES*      FAIR      71  71 100 CALM      29.92S
HAMMOND*       CLEAR     72  66  83 NE3       29.96S
HOUMA*         CLEAR     72  66  81 N3        29.91S
PORT FOURCHON* PTSUNNY   81  72  74 E14G20    29.92S

$$

LAZ041-044-053-054-201000-
SOUTHWEST LOUISIANA

CITY           SKY/WX    TMP DP  RH WIND       PRES   REMARKS
LAKE CHARLES   CLEAR     71  69  93 NE7       29.93S
LAFAYETTE      CLEAR     71  70  96 N5        29.93S
PATTERSON      CLEAR     72  68  88 NE5       29.93F
SALT POINT       N/A     75  71  87 CALM      29.90S
NEW IBERIA     CLEAR     73  69  87 NE6       29.93S
CHENAULT AIRPK CLEAR     70  69  96 CALM      29.94S

$$

LAZ027-028-201000-
CENTRAL LOUISIANA

CITY           SKY/WX    TMP DP  RH WIND       PRES   REMARKS
FORT POLK      CLEAR     70  69  97 CALM      29.96R
ALEXANDRIA INT CLEAR     69  67  93 CALM      29.94S FOG
ALEXANDRIA     PTCLDY    69  66  90 CALM      29.96S FOG

$$

LAZ001-002-201000-
NORTHWEST LOUISIANA

CITY           SKY/WX    TMP DP  RH WIND       PRES   REMARKS
SHREVEPORT     CLEAR     69  67  93 CALM      29.96S
BARKSDALE AFB  CLEAR     70  69  96 CALM      29.97S
DTN SHREVEPORT CLEAR     70 N/A N/A CALM      29.97S

$$

LAZ014-016-201000-
NORTHEAST LOUISIANA

CITY           SKY/WX    TMP DP  RH WIND       PRES   REMARKS
MONROE         CLEAR     69  67  93 CALM      29.97S
TALLULAH       CLEAR     66  64  93 CALM      29.97R

$$




USA.gov is the U.S. government's official web portal to all federal, state and local government web resources and services.